Вернуться в каталог

IRIDIUM 4

АктивенСвязьPO
NORAD 24796·PAYLOAD·🇺🇸 United States

Запущен May 5, 1997 с Vandenberg Space Force Base

Loading…

Ближайшие Пролёты (ближайшие 24 часа)

TLE

СвежийSource: Space-Track

Эпоха: Sep 13, 2026, 17:47 UTC

1 24796U 97020E   26256.74152113  .00000199  00000-0  60080-4 0  9998
2 24796  86.4012 343.2994 0002340  93.5191 266.6274 14.37199266537604

Отслеживайте IRIDIUM 4 в реальном времени с AllMySat

Download on the App Store